| Back to River Map | <<< Previous Forecast Point | | | Next Forecast Point >>> | Printer Version | Graph Version |  |
|
DEER CREEK - SMARTSVILLE (DCSC1)
| Latitude: 39.22º N | Longitude: 121.27º W | Elevation: 630 Feet | | Forecast Type: Unofficial Location |
| Location: Nevada County in California | Bulletin Group: Lower Sacramento | River Group: Feather Yuba |
| Issuance Time: | May 04 2026 at 7:31 AM PDT | Next Issuance: | May 05 2026 at 9:00 AM PDT
| |
| Action/Monitor: N/A | Minor Flood: N/A | Moderate Flood: N/A | Major Flood: N/A |
# Tabular Observed and Forecast Hydrograph Information
#
# Location: Deer Creek - Smartsville (DCSC1)
#
# File Generation Time: 05/04/2026 at 07:34 AM PDT
# Data Interval: 1 Hour
#
# Most Recent Date & Time of Maximum Observed: 04/29/2026 at 11:00 AM PDT
# Maximum Observed Stage: 2.74 Feet
# Maximum Observed Flow: 95 cfs
#
# Earliest Date & Time of Maximum Forecast: 05/05/2026 at 08:00 AM PDT
# Maximum Forecast Stage: 2.57 Feet
# Maximum Forecast Flow: 76 cfs
#
# OBSERVED
#
# Date & Time (Local) Stage (Feet) Flow (cfs) Trend Observed Status
# ---------------------------------------------------------------------------------
04/29/2026 07 AM PDT 2.73 94 Not Applicable
04/29/2026 08 AM PDT 2.74 95 + Not Applicable
04/29/2026 09 AM PDT 2.74 95 0 Not Applicable
04/29/2026 10 AM PDT 2.74 95 0 Not Applicable
04/29/2026 11 AM PDT 2.74 95 0 Not Applicable
04/29/2026 12 PM PDT 2.73 94 - Not Applicable
04/29/2026 01 PM PDT 2.72 92 - Not Applicable
04/29/2026 02 PM PDT 2.72 92 0 Not Applicable
04/29/2026 03 PM PDT 2.71 91 - Not Applicable
04/29/2026 04 PM PDT 2.70 90 - Not Applicable
04/29/2026 05 PM PDT 2.70 90 0 Not Applicable
04/29/2026 06 PM PDT 2.69 89 - Not Applicable
04/29/2026 07 PM PDT 2.69 89 0 Not Applicable
04/29/2026 08 PM PDT 2.69 89 0 Not Applicable
04/29/2026 09 PM PDT 2.68 88 - Not Applicable
04/29/2026 10 PM PDT 2.68 88 0 Not Applicable
04/29/2026 11 PM PDT 2.67 87 - Not Applicable
04/30/2026 12 AM PDT 2.67 87 0 Not Applicable
04/30/2026 01 AM PDT 2.65 84 - Not Applicable
04/30/2026 02 AM PDT 2.64 83 - Not Applicable
04/30/2026 03 AM PDT 2.64 83 0 Not Applicable
04/30/2026 04 AM PDT 2.63 82 - Not Applicable
04/30/2026 05 AM PDT 2.62 81 - Not Applicable
04/30/2026 06 AM PDT 2.62 81 0 Not Applicable
04/30/2026 07 AM PDT 2.61 80 - Not Applicable
04/30/2026 08 AM PDT 2.60 79 - Not Applicable
04/30/2026 09 AM PDT 2.60 79 0 Not Applicable
04/30/2026 10 AM PDT 2.60 79 0 Not Applicable
04/30/2026 11 AM PDT 2.58 77 - Not Applicable
04/30/2026 12 PM PDT 2.58 77 0 Not Applicable
04/30/2026 01 PM PDT 2.56 75 - Not Applicable
04/30/2026 02 PM PDT 2.56 75 0 Not Applicable
04/30/2026 03 PM PDT 2.56 75 0 Not Applicable
04/30/2026 04 PM PDT 2.56 75 0 Not Applicable
04/30/2026 05 PM PDT 2.56 75 0 Not Applicable
04/30/2026 06 PM PDT 2.56 75 0 Not Applicable
04/30/2026 07 PM PDT 2.55 73 - Not Applicable
04/30/2026 08 PM PDT 2.55 73 0 Not Applicable
04/30/2026 09 PM PDT 2.56 75 + Not Applicable
04/30/2026 10 PM PDT 2.55 73 - Not Applicable
04/30/2026 11 PM PDT 2.55 73 0 Not Applicable
05/01/2026 12 AM PDT 2.55 73 0 Not Applicable
05/01/2026 01 AM PDT 2.55 73 0 Not Applicable
05/01/2026 02 AM PDT 2.54 72 - Not Applicable
05/01/2026 03 AM PDT 2.53 71 - Not Applicable
05/01/2026 04 AM PDT 2.52 70 - Not Applicable
05/01/2026 05 AM PDT 2.52 70 0 Not Applicable
05/01/2026 06 AM PDT 2.51 69 - Not Applicable
05/01/2026 07 AM PDT 2.50 68 - Not Applicable
05/01/2026 08 AM PDT 2.50 68 0 Not Applicable
05/01/2026 09 AM PDT 2.49 67 - Not Applicable
05/01/2026 10 AM PDT 2.48 66 - Not Applicable
05/01/2026 11 AM PDT 2.48 66 0 Not Applicable
05/01/2026 12 PM PDT 2.47 65 - Not Applicable
05/01/2026 01 PM PDT 2.45 64 - Not Applicable
05/01/2026 02 PM PDT 2.45 64 0 Not Applicable
05/01/2026 03 PM PDT 2.45 64 0 Not Applicable
05/01/2026 04 PM PDT 2.45 64 0 Not Applicable
05/01/2026 05 PM PDT 2.44 63 - Not Applicable
05/01/2026 06 PM PDT 2.44 63 0 Not Applicable
05/01/2026 07 PM PDT 2.43 62 - Not Applicable
05/01/2026 08 PM PDT 2.43 62 0 Not Applicable
05/01/2026 09 PM PDT 2.43 62 0 Not Applicable
05/01/2026 10 PM PDT 2.42 61 - Not Applicable
05/01/2026 11 PM PDT 2.41 60 - Not Applicable
05/02/2026 12 AM PDT 2.41 60 0 Not Applicable
05/02/2026 01 AM PDT 2.40 59 - Not Applicable
05/02/2026 02 AM PDT 2.40 59 0 Not Applicable
05/02/2026 03 AM PDT 2.39 58 - Not Applicable
05/02/2026 04 AM PDT 2.38 57 - Not Applicable
05/02/2026 05 AM PDT 2.38 57 0 Not Applicable
05/02/2026 06 AM PDT 2.37 56 - Not Applicable
05/02/2026 07 AM PDT 2.37 56 0 Not Applicable
05/02/2026 08 AM PDT 2.37 56 0 Not Applicable
05/02/2026 09 AM PDT 2.36 55 - Not Applicable
05/02/2026 10 AM PDT 2.36 55 0 Not Applicable
05/02/2026 11 AM PDT 2.36 55 0 Not Applicable
05/02/2026 12 PM PDT 2.35 55 - Not Applicable
05/02/2026 01 PM PDT 2.34 54 - Not Applicable
05/02/2026 02 PM PDT 2.34 54 0 Not Applicable
05/02/2026 03 PM PDT 2.34 54 0 Not Applicable
05/02/2026 04 PM PDT 2.34 54 0 Not Applicable
05/02/2026 05 PM PDT 2.33 53 - Not Applicable
05/02/2026 06 PM PDT 2.33 53 0 Not Applicable
05/02/2026 07 PM PDT 2.32 52 - Not Applicable
05/02/2026 08 PM PDT 2.32 52 0 Not Applicable
05/02/2026 09 PM PDT 2.32 52 0 Not Applicable
05/02/2026 10 PM PDT 2.33 53 + Not Applicable
05/02/2026 11 PM PDT 2.33 53 0 Not Applicable
05/03/2026 12 AM PDT 2.33 53 0 Not Applicable
05/03/2026 01 AM PDT 2.32 52 - Not Applicable
05/03/2026 02 AM PDT 2.32 52 0 Not Applicable
05/03/2026 03 AM PDT 2.32 52 0 Not Applicable
05/03/2026 04 AM PDT 2.32 52 0 Not Applicable
05/03/2026 05 AM PDT 2.32 52 0 Not Applicable
05/03/2026 06 AM PDT 2.31 51 - Not Applicable
05/03/2026 07 AM PDT 2.30 50 - Not Applicable
05/03/2026 08 AM PDT 2.30 50 0 Not Applicable
05/03/2026 09 AM PDT 2.30 50 0 Not Applicable
05/03/2026 10 AM PDT 2.30 50 0 Not Applicable
05/03/2026 11 AM PDT 2.30 50 0 Not Applicable
05/03/2026 12 PM PDT 2.29 50 - Not Applicable
05/03/2026 01 PM PDT 2.29 50 0 Not Applicable
05/03/2026 02 PM PDT 2.29 50 0 Not Applicable
05/03/2026 03 PM PDT 2.29 50 0 Not Applicable
05/03/2026 04 PM PDT 2.29 50 0 Not Applicable
05/03/2026 05 PM PDT 2.30 50 + Not Applicable
05/03/2026 06 PM PDT 2.32 52 + Not Applicable
05/03/2026 07 PM PDT 2.32 52 0 Not Applicable
05/03/2026 08 PM PDT 2.33 53 + Not Applicable
05/03/2026 09 PM PDT 2.33 53 0 Not Applicable
05/03/2026 10 PM PDT 2.33 53 0 Not Applicable
05/03/2026 11 PM PDT 2.33 53 0 Not Applicable
05/04/2026 12 AM PDT 2.34 54 + Not Applicable
05/04/2026 01 AM PDT 2.35 55 + Not Applicable
05/04/2026 02 AM PDT 2.36 55 + Not Applicable
05/04/2026 03 AM PDT 2.36 55 0 Not Applicable
05/04/2026 04 AM PDT 2.37 56 + Not Applicable
05/04/2026 05 AM PDT 2.38 57 + Not Applicable
05/04/2026 06 AM PDT 2.38 57 0 Not Applicable
05/04/2026 07 AM PDT 2.37 56 - Not Applicable
#
# FORECAST
#
# Date & Time (Local) Stage (Feet) Flow (cfs) Trend Forecast Status
# ---------------------------------------------------------------------------------
05/04/2026 08 AM PDT 2.37 56 Not Applicable
05/04/2026 09 AM PDT 2.36 55 - Not Applicable
05/04/2026 10 AM PDT 2.36 55 0 Not Applicable
05/04/2026 11 AM PDT 2.36 55 0 Not Applicable
05/04/2026 12 PM PDT 2.36 55 0 Not Applicable
05/04/2026 01 PM PDT 2.36 55 0 Not Applicable
05/04/2026 02 PM PDT 2.37 56 + Not Applicable
05/04/2026 03 PM PDT 2.38 57 + Not Applicable
05/04/2026 04 PM PDT 2.40 59 + Not Applicable
05/04/2026 05 PM PDT 2.42 61 + Not Applicable
05/04/2026 06 PM PDT 2.43 62 + Not Applicable
05/04/2026 07 PM PDT 2.44 63 + Not Applicable
05/04/2026 08 PM PDT 2.45 64 + Not Applicable
05/04/2026 09 PM PDT 2.46 65 + Not Applicable
05/04/2026 10 PM PDT 2.47 65 + Not Applicable
05/04/2026 11 PM PDT 2.47 65 0 Not Applicable
05/05/2026 12 AM PDT 2.47 65 0 Not Applicable
05/05/2026 01 AM PDT 2.48 66 + Not Applicable
05/05/2026 02 AM PDT 2.49 67 + Not Applicable
05/05/2026 03 AM PDT 2.50 68 + Not Applicable
05/05/2026 04 AM PDT 2.52 70 + Not Applicable
05/05/2026 05 AM PDT 2.54 72 + Not Applicable
05/05/2026 06 AM PDT 2.55 73 + Not Applicable
05/05/2026 07 AM PDT 2.56 75 + Not Applicable
05/05/2026 08 AM PDT 2.57 76 + Not Applicable
05/05/2026 09 AM PDT 2.57 76 0 Not Applicable
05/05/2026 10 AM PDT 2.57 76 0 Not Applicable
05/05/2026 11 AM PDT 2.56 75 - Not Applicable
05/05/2026 12 PM PDT 2.55 73 - Not Applicable
05/05/2026 01 PM PDT 2.54 72 - Not Applicable
05/05/2026 02 PM PDT 2.53 71 - Not Applicable
05/05/2026 03 PM PDT 2.52 70 - Not Applicable
05/05/2026 04 PM PDT 2.50 68 - Not Applicable
05/05/2026 05 PM PDT 2.48 66 - Not Applicable
05/05/2026 06 PM PDT 2.46 65 - Not Applicable
05/05/2026 07 PM PDT 2.44 63 - Not Applicable
05/05/2026 08 PM PDT 2.42 61 - Not Applicable
05/05/2026 09 PM PDT 2.41 60 - Not Applicable
05/05/2026 10 PM PDT 2.39 58 - Not Applicable
05/05/2026 11 PM PDT 2.38 57 - Not Applicable
05/06/2026 12 AM PDT 2.36 55 - Not Applicable
05/06/2026 01 AM PDT 2.35 55 - Not Applicable
05/06/2026 02 AM PDT 2.34 54 - Not Applicable
05/06/2026 03 AM PDT 2.33 53 - Not Applicable
05/06/2026 04 AM PDT 2.32 52 - Not Applicable
05/06/2026 05 AM PDT 2.31 51 - Not Applicable
05/06/2026 06 AM PDT 2.31 51 0 Not Applicable
05/06/2026 07 AM PDT 2.30 50 - Not Applicable
05/06/2026 08 AM PDT 2.30 50 0 Not Applicable
05/06/2026 09 AM PDT 2.29 50 - Not Applicable
05/06/2026 10 AM PDT 2.29 50 0 Not Applicable
05/06/2026 11 AM PDT 2.28 49 - Not Applicable
05/06/2026 12 PM PDT 2.28 49 0 Not Applicable
05/06/2026 01 PM PDT 2.28 49 0 Not Applicable
05/06/2026 02 PM PDT 2.28 49 0 Not Applicable
05/06/2026 03 PM PDT 2.27 48 - Not Applicable
05/06/2026 04 PM PDT 2.27 48 0 Not Applicable
05/06/2026 05 PM PDT 2.27 48 0 Not Applicable
05/06/2026 06 PM PDT 2.26 47 - Not Applicable
05/06/2026 07 PM PDT 2.26 47 0 Not Applicable
05/06/2026 08 PM PDT 2.25 46 - Not Applicable
05/06/2026 09 PM PDT 2.25 46 0 Not Applicable
05/06/2026 10 PM PDT 2.25 46 0 Not Applicable
05/06/2026 11 PM PDT 2.25 46 0 Not Applicable
05/07/2026 12 AM PDT 2.25 46 0 Not Applicable
05/07/2026 01 AM PDT 2.25 46 0 Not Applicable
05/07/2026 02 AM PDT 2.24 46 - Not Applicable
05/07/2026 03 AM PDT 2.24 46 0 Not Applicable
05/07/2026 04 AM PDT 2.24 46 0 Not Applicable
05/07/2026 05 AM PDT 2.24 46 0 Not Applicable
05/07/2026 06 AM PDT 2.24 46 0 Not Applicable
05/07/2026 07 AM PDT 2.24 46 0 Not Applicable
05/07/2026 08 AM PDT 2.24 46 0 Not Applicable
05/07/2026 09 AM PDT 2.24 46 0 Not Applicable
05/07/2026 10 AM PDT 2.24 46 0 Not Applicable
05/07/2026 11 AM PDT 2.24 46 0 Not Applicable
05/07/2026 12 PM PDT 2.24 46 0 Not Applicable
05/07/2026 01 PM PDT 2.24 46 0 Not Applicable
05/07/2026 02 PM PDT 2.24 46 0 Not Applicable
05/07/2026 03 PM PDT 2.23 45 - Not Applicable
05/07/2026 04 PM PDT 2.23 45 0 Not Applicable
05/07/2026 05 PM PDT 2.23 45 0 Not Applicable
05/07/2026 06 PM PDT 2.23 45 0 Not Applicable
05/07/2026 07 PM PDT 2.23 45 0 Not Applicable
05/07/2026 08 PM PDT 2.23 45 0 Not Applicable
05/07/2026 09 PM PDT 2.23 45 0 Not Applicable
05/07/2026 10 PM PDT 2.22 44 - Not Applicable
05/07/2026 11 PM PDT 2.22 44 0 Not Applicable
05/08/2026 12 AM PDT 2.22 44 0 Not Applicable
05/08/2026 01 AM PDT 2.22 44 0 Not Applicable
05/08/2026 02 AM PDT 2.22 44 0 Not Applicable
05/08/2026 03 AM PDT 2.22 44 0 Not Applicable
05/08/2026 04 AM PDT 2.22 44 0 Not Applicable
05/08/2026 05 AM PDT 2.22 44 0 Not Applicable
05/08/2026 06 AM PDT 2.22 44 0 Not Applicable
05/08/2026 07 AM PDT 2.22 44 0 Not Applicable
05/08/2026 08 AM PDT 2.21 43 - Not Applicable
05/08/2026 09 AM PDT 2.21 43 0 Not Applicable
05/08/2026 10 AM PDT 2.21 43 0 Not Applicable
05/08/2026 11 AM PDT 2.21 43 0 Not Applicable
05/08/2026 12 PM PDT 2.21 43 0 Not Applicable
05/08/2026 01 PM PDT 2.21 43 0 Not Applicable
05/08/2026 02 PM PDT 2.21 43 0 Not Applicable
05/08/2026 03 PM PDT 2.21 43 0 Not Applicable
05/08/2026 04 PM PDT 2.21 43 0 Not Applicable
05/08/2026 05 PM PDT 2.21 43 0 Not Applicable
05/08/2026 06 PM PDT 2.21 43 0 Not Applicable
05/08/2026 07 PM PDT 2.21 43 0 Not Applicable
05/08/2026 08 PM PDT 2.20 43 - Not Applicable
05/08/2026 09 PM PDT 2.20 43 0 Not Applicable
05/08/2026 10 PM PDT 2.20 43 0 Not Applicable
05/08/2026 11 PM PDT 2.20 43 0 Not Applicable
05/09/2026 12 AM PDT 2.20 43 0 Not Applicable
05/09/2026 01 AM PDT 2.20 43 0 Not Applicable
05/09/2026 02 AM PDT 2.20 43 0 Not Applicable
05/09/2026 03 AM PDT 2.20 43 0 Not Applicable
05/09/2026 04 AM PDT 2.20 43 0 Not Applicable
05/09/2026 05 AM PDT 2.20 43 0 Not Applicable
#
# NOTE 1: Stages are rounded to the nearest hundredth (.01) of a foot.
# NOTE 2: Flows are rounded to the nearest (1) cfs.
# NOTE 3: Trends are determined using hourly change in unrounded stage and flow.
# NOTE 4: Maximum Values are determined using unrounded stage and flow.
|